Weather History for KFKS - March, 2014

Change the Weather History Date:

Saturday, March 15, 2014

  Actual Average (KTVC) Record (KTVC)
Temperature  
Mean Temperature 22 °F 30 °F  
Max Temperature 35 °F 39 °F 78 °F (1990)
Min Temperature 10 °F 21 °F -6 °F (1916)
Degree Days  
Heating Degree Days 42 35  
Month to date heating degree days 559  
Since 1 July heating degree days 5899  
Cooling Degree Days 0 0  
Month to date cooling degree days 0  
Year to date cooling degree days 0  
Moisture  
Dew Point 14 °F    
Average Humidity 72    
Maximum Humidity 92    
Minimum Humidity 61    
Precipitation  
Precipitation 0.00 in 0.05 in 1.57 in (1959)
Month to date precipitation 0.85  
Year to date precipitation 5.17  
Sea Level Pressure  
Sea Level Pressure 30.07 in    
Wind  
Wind Speed 9 mph (North)    
Max Wind Speed 16 mph    
Max Gust Speed 26 mph    
Visibility 10 miles    
Events Rain , Snow    
T = Trace of Precipitation, MM = Missing Value Source: NWS Daily Summary

Daily Weather History Graph

Daily Weather History Graph

Search for Another Location

Airport or City:

Trip Planner

Search our weather history database for the weather conditions in past years. The results will help you decide how hot, cold, wet, or windy it might be!

Date:

Astronomy

Mar. 15, 2014 Rise Set
Actual Time 7:57 AM EDT 7:50 PM EDT
Civil Twilight 7:28 AM EDT 8:19 PM EDT
Nautical Twilight 6:54 AM EDT 8:53 PM EDT
Astronomical Twilight 6:19 AM EDT 9:28 PM EDT
Moon 7:09 PM EDT (3/15) 7:10 AM EDT (3/15)
Length of Visible Light 12h 51m
Length of Day
11h 53m
Waxing Gibbous, 99% of the Moon is Illuminated
Mar 15
Waxing Gibbous
Mar 16
Full
Mar 23
Last Quarter
Mar 30
New
Apr 7
First Quarter

Hourly Weather History & Observations

Time (EDT) Temp. Windchill Dew Point Humidity Pressure Visibility Wind Dir Wind Speed Gust Speed Precip Events Conditions
12:16 AM 34.7 °F 30.6 °F 31.8 °F 89% 29.66 in 10.0 mi WNW 4.6 mph - N/A Rain Light Rain
12:32 AM 35.1 °F 30.1 °F 31.8 °F 88% 29.67 in 10.0 mi WNW 5.8 mph - N/A Rain Light Rain
12:52 AM 34.7 °F 29.6 °F 31.8 °F 89% 29.68 in 10.0 mi NW 5.8 mph - N/A Snow Light Snow
1:12 AM 32.4 °F 24.6 °F 30.2 °F 92% 29.69 in 7.0 mi North 9.2 mph 17.3 mph N/A Snow Light Snow
1:32 AM 31.8 °F 22.8 °F 28.9 °F 89% 29.71 in 7.0 mi NNW 11.5 mph 23.0 mph N/A Snow Light Snow
1:52 AM 30.7 °F 21.4 °F 27.3 °F 87% 29.73 in 5.0 mi North 11.5 mph 23.0 mph N/A Snow Light Snow
2:13 AM 30.4 °F 22.2 °F 26.1 °F 84% 29.74 in 7.0 mi NNW 9.2 mph 21.9 mph N/A Snow Light Snow
2:33 AM 30.2 °F 21.3 °F 25.7 °F 83% 29.75 in 10.0 mi NNW 10.4 mph 18.4 mph N/A   Overcast
2:53 AM 30.0 °F 23.2 °F 26.2 °F 86% 29.77 in 10.0 mi North 6.9 mph - N/A   Overcast
3:13 AM 29.3 °F 19.1 °F 25.0 °F 84% 29.78 in 10.0 mi North 12.7 mph 19.6 mph N/A   Overcast
3:33 AM 28.2 °F 18.3 °F 23.4 °F 82% 29.80 in 10.0 mi North 11.5 mph 20.7 mph N/A   Overcast
3:54 AM 27.9 °F 18.4 °F 22.1 °F 79% 29.81 in 10.0 mi North 10.4 mph 19.6 mph N/A   Overcast
4:14 AM 27.3 °F 17.1 °F 21.9 °F 80% 29.82 in 10.0 mi NNW 11.5 mph 19.6 mph N/A   Overcast
4:34 AM 27.0 °F 17.3 °F 20.8 °F 78% 29.83 in 10.0 mi North 10.4 mph 17.3 mph N/A   Overcast
4:54 AM 26.4 °F 17.3 °F 19.4 °F 75% 29.85 in 10.0 mi North 9.2 mph 23.0 mph N/A   Overcast
5:14 AM 25.7 °F 14.0 °F 18.9 °F 75% 29.85 in 10.0 mi North 13.8 mph 20.7 mph N/A   Overcast
5:34 AM 25.3 °F 14.7 °F 18.5 °F 75% 29.87 in 10.0 mi North 11.5 mph 23.0 mph N/A   Mostly Cloudy
5:54 AM 24.4 °F 13.5 °F 17.4 °F 75% 29.89 in 10.0 mi North 11.5 mph 19.6 mph N/A   Scattered Clouds
6:14 AM 23.9 °F 12.9 °F 17.4 °F 76% 29.90 in 10.0 mi North 11.5 mph 24.2 mph N/A   Scattered Clouds
6:34 AM 23.0 °F 10.1 °F 16.7 °F 77% 29.92 in 10.0 mi North 15.0 mph 23.0 mph N/A   Clear
6:55 AM 22.5 °F 12.4 °F 16.9 °F 79% 29.94 in 10.0 mi North 9.2 mph 16.1 mph N/A   Scattered Clouds
7:15 AM 22.1 °F 12.8 °F 16.7 °F 80% 29.95 in 10.0 mi North 8.1 mph - N/A   Mostly Cloudy
7:35 AM 21.9 °F 11.7 °F 16.3 °F 79% 29.95 in 10.0 mi North 9.2 mph - N/A   Scattered Clouds
7:55 AM 21.7 °F 12.3 °F 16.3 °F 80% 29.97 in 10.0 mi North 8.1 mph - N/A   Clear
8:15 AM 21.4 °F 10.4 °F 14.9 °F 76% 29.98 in 10.0 mi North 10.4 mph 16.1 mph N/A   Scattered Clouds
8:35 AM 21.2 °F 10.1 °F 15.4 °F 78% 29.99 in 10.0 mi North 10.4 mph - N/A   Scattered Clouds
8:55 AM 21.0 °F 11.4 °F 14.9 °F 77% 30.00 in 10.0 mi North 8.1 mph 17.3 mph N/A   Scattered Clouds
9:15 AM 21.0 °F 9.9 °F 14.9 °F 77% 30.02 in 10.0 mi North 10.4 mph 17.3 mph N/A   Scattered Clouds
9:35 AM 20.7 °F 10.2 °F 14.2 °F 76% 30.04 in 10.0 mi North 9.2 mph 16.1 mph N/A   Scattered Clouds
9:55 AM 21.2 °F 10.1 °F 13.6 °F 73% 30.05 in 10.0 mi North 10.4 mph - N/A   Scattered Clouds
10:16 AM 21.7 °F 10.8 °F 13.8 °F 72% 30.06 in 10.0 mi NNW 10.4 mph - N/A   Clear
10:36 AM 22.1 °F 9.5 °F 14.0 °F 71% 30.08 in 10.0 mi North 13.8 mph - N/A   Scattered Clouds
10:56 AM 22.1 °F 10.6 °F 14.0 °F 71% 30.09 in 10.0 mi NNW 11.5 mph 19.6 mph N/A   Scattered Clouds
11:16 AM 21.7 °F 10.2 °F 14.2 °F 73% 30.10 in 10.0 mi North 11.5 mph 19.6 mph N/A   Mostly Cloudy
11:36 AM 21.2 °F 7.3 °F 14.0 °F 74% 30.10 in 10.0 mi North 16.1 mph 26.5 mph N/A Snow Light Snow
11:56 AM 21.4 °F 10.4 °F 13.5 °F 72% 30.11 in 10.0 mi North 10.4 mph 17.3 mph N/A   Mostly Cloudy
12:16 PM 22.5 °F 13.2 °F 13.1 °F 67% 30.12 in 10.0 mi NNW 8.1 mph - N/A   Scattered Clouds
12:36 PM 22.1 °F 8.5 °F 12.2 °F 66% 30.13 in 10.0 mi North 16.1 mph 19.6 mph N/A   Scattered Clouds
12:51 PM 22.1 °F 11.3 °F 12.7 °F 67% 30.14 in 10.0 mi North 10.4 mph 17.3 mph N/A   Scattered Clouds
1:12 PM 21.9 °F 12.5 °F 12.6 °F 67% 30.15 in 10.0 mi North 8.1 mph 16.1 mph N/A   Scattered Clouds
1:32 PM 21.9 °F 11.0 °F 12.0 °F 66% 30.16 in 10.0 mi North 10.4 mph 16.1 mph N/A   Scattered Clouds
1:52 PM 22.1 °F 8.9 °F 12.6 °F 67% 30.17 in 10.0 mi North 15.0 mph 18.4 mph N/A   Mostly Cloudy
2:12 PM 21.2 °F 10.9 °F 10.6 °F 64% 30.17 in 10.0 mi NNW 9.2 mph 20.7 mph N/A   Mostly Cloudy
2:32 PM 21.6 °F 9.3 °F 11.3 °F 65% 30.17 in 10.0 mi North 12.7 mph 19.6 mph N/A   Mostly Cloudy
2:52 PM 21.7 °F 9.6 °F 11.8 °F 66% 30.18 in 10.0 mi NNW 12.7 mph 23.0 mph N/A   Scattered Clouds
3:12 PM 21.2 °F 10.9 °F 11.8 °F 67% 30.18 in 10.0 mi North 9.2 mph 19.6 mph N/A   Scattered Clouds
3:32 PM 21.4 °F 11.9 °F 10.6 °F 63% 30.19 in 10.0 mi North 8.1 mph 20.7 mph N/A   Scattered Clouds
3:52 PM 21.0 °F 9.3 °F 11.1 °F 66% 30.19 in 10.0 mi North 11.5 mph 18.4 mph N/A   Clear
4:13 PM 20.7 °F 8.2 °F 10.2 °F 64% 30.20 in 10.0 mi North 12.7 mph 19.6 mph N/A   Clear
4:33 PM 20.7 °F 11.0 °F 10.4 °F 65% 30.21 in 10.0 mi North 8.1 mph 20.7 mph N/A   Clear
4:53 PM 21.0 °F 10.6 °F 10.9 °F 65% 30.22 in 10.0 mi North 9.2 mph - N/A   Clear
5:13 PM 20.1 °F 7.5 °F 8.8 °F 62% 30.22 in 10.0 mi North 12.7 mph 19.6 mph N/A   Clear
5:33 PM 20.1 °F 8.8 °F 8.8 °F 62% 30.23 in 10.0 mi North 10.4 mph 17.3 mph N/A   Clear
5:53 PM 20.1 °F 10.3 °F 8.4 °F 61% 30.24 in 10.0 mi North 8.1 mph 18.4 mph N/A   Clear
6:13 PM 19.9 °F 10.1 °F 8.6 °F 61% 30.25 in 10.0 mi North 8.1 mph - N/A   Clear
6:33 PM 19.0 °F 6.1 °F 8.2 °F 63% 30.25 in 10.0 mi NNE 12.7 mph 18.4 mph N/A   Clear
6:53 PM 18.9 °F 10.8 °F 8.4 °F 64% 30.26 in 10.0 mi NE 5.8 mph - N/A   Clear
7:14 PM 18.1 °F 7.1 °F 7.3 °F 63% 30.27 in 10.0 mi NE 9.2 mph 17.3 mph N/A   Clear
7:34 PM 17.4 °F 7.1 °F 6.6 °F 63% 30.28 in 10.0 mi NNE 8.1 mph 18.4 mph N/A   Clear
7:54 PM 17.1 °F 5.8 °F 6.6 °F 64% 30.29 in 10.0 mi NNE 9.2 mph - N/A   Clear
8:14 PM 16.7 °F 7.2 °F 7.3 °F 67% 30.30 in 10.0 mi NNE 6.9 mph 16.1 mph N/A   Clear
8:34 PM 15.8 °F 5.1 °F 6.6 °F 67% 30.32 in 10.0 mi NNE 8.1 mph 16.1 mph N/A   Clear
8:54 PM 14.9 °F 6.1 °F 5.7 °F 67% 30.33 in 10.0 mi NNE 5.8 mph - N/A   Clear
9:14 PM 14.5 °F 4.6 °F 4.6 °F 65% 30.34 in 10.0 mi NNE 6.9 mph - N/A   Clear
9:34 PM 14.0 °F 2.0 °F 4.1 °F 65% 30.35 in 10.0 mi NNE 9.2 mph 16.1 mph N/A   Clear
9:54 PM 13.5 °F 2.2 °F 3.4 °F 64% 30.36 in 10.0 mi NNE 8.1 mph 16.1 mph N/A   Clear
10:14 PM 12.9 °F 2.6 °F 2.8 °F 64% 30.37 in 10.0 mi North 6.9 mph - N/A   Clear
10:35 PM 12.6 °F -1.4 °F 3.2 °F 66% 30.38 in 10.0 mi NNE 11.5 mph 17.3 mph N/A   Clear
10:55 PM 12.2 °F -0.2 °F 3.7 °F 69% 30.39 in 10.0 mi NE 9.2 mph - N/A   Clear
11:15 PM 11.3 °F -1.3 °F 2.1 °F 67% 30.39 in 10.0 mi NNE 9.2 mph - N/A   Clear
11:35 PM 10.9 °F -2.6 °F 0.5 °F 63% 30.40 in 10.0 mi NNE 10.4 mph 16.1 mph N/A   Clear
11:55 PM 10.8 °F -2.0 °F 1.0 °F 65% 30.41 in 10.0 mi NNE 9.2 mph - N/A   Clear